STARLINK-32175, 60339

Orbit data source: Space-Track

STARLINK-32175, 60339 is a payload satellite owned by SpaceX/Seattle (US) in LEO that was launched on Fri, 02 Aug 2024 UTC via an FALCON 9 launch vehicle from the Air Force Eastern Test Range (AFETR). Payloads include a variety of satellites, spacecraft, and rockets equipped with specific instruments for various scientific and technological missions. These include communications satellites like Starlink; space stations such as the ISS; scientific satellites like the Hubble; Earth observation satellites from companies like Planet Labs, Umbra, and HawkEye 360; GPS; miniature CubeSats for education and research; and military/defense satellites.

Loading next visibility...
STARLINK-32175 details
Identifier
60339, 2024-136L
Orbit
LEO
Last TLE update22 hours ago
Origin
Flag of USSpaceX/Seattle (US)
ManufacturerSpaceX/Seattle
MissionOperational spacecraft
Bus & MotorSTARLINK V2M, Unknown motor
Mass730 kg wet, ~700 kg dry
Launch date (UTC)
2024-08-02 (5 months ago)
Launch vehicle
FALCON 9
Launch site
Air Force Eastern Test Range (AFETR)
Object type
Payload
Rocket body
Debris
Shape & HBRUnknown
Radar Cross SectionLarge (>1 m²)

Expand to show TLE details & history

TLE from 22 hours ago
0 STARLINK-32175
1 60339U 24136L   24356.32981993 -.00000483  00000-0 -41643-5 0  9991
2 60339  53.1613 335.0679 0001702  94.7788 265.3407 15.30195170 21785
Epoch: 2024-12-21T07:54Z
Definitive object data (Epoch: 2024-12-21T07:54:56.441Z)
Latitude-0.00006°
Longitude125.95015°
Altitude476.224 km
Speed7.629 km/s
True Right ascension22h 20m 16s
True Declination0° 00' 00"
Sunlit
Object was in daylight at TLE epoch
Visualization TLE readout
Latitude2.14296°
Longitude123.29701°
Altitude475.975 km
Speed7.629 km/s
Apparent Right ascension20h 04m 03s
Apparent Declination-22° 31' 23"
Sunlit
Object is in daylight
Visualization observer readout
Local Sidereal Time04:57:02
Azimuth279.474° WNW
Elevation-46.986°
Doppler factor1
Orbital elements
Apogee altitude476.652 km
Perigee altitude474.319 km
Semi-major axis6,853.623 km
Eccentricity0.0001702
Inclination53.1613°
RAAN335.0679°
Arg. of periapsis94.7788°
True anomaly265.32126°
Mean anomaly265.3407°
Eccentric anomaly265.33098°
Mean motion3.82528 °/min
BSTAR-0.0000041643
Orbital period94.11 mins
Loading maneuver chart data...
Loading historical data...
Loading historical data...
Loading historical data...
Loading historical data...
Loading historical data...
Loading historical data...
Loading historical data...

STARLINK-32175 Visibility forecast

Observer location: undefined°, undefined

Span
Click to sort rows by Start time (UTC) header in descending order
Start Az.
Max El. time (UTC)
Max El. Az.
Max El.
End time (UTC)
End Az.
4 mins2024-12-22 06:17:22.712Z344.133° N2024-12-22 06:19:22.712Z18.523° NNE14.263°2024-12-22 06:21:22.712Z52.196° ENE
6 mins2024-12-22 07:55:22.712Z322.508° NNW2024-12-22 07:58:22.712Z70.17° E37.257°2024-12-22 08:01:22.712Z115.143° SE
5 mins2024-12-23 00:51:22.712Z205.168° SW2024-12-23 00:53:22.712Z135.904° SSE39.22°2024-12-23 00:56:22.712Z60.171° ENE
4 mins2024-12-23 02:30:22.712Z305.707° NW2024-12-23 02:31:22.712Z330.254° NNW21.706°2024-12-23 02:34:22.712Z27.517° NE
|